Location: Calvera
(42.3882°N, 0.6137°E)
Time: 19:29:39
(UTC+00:00)

Cosmos 1553 Rocket - Pass Details

Date: 28 October 2020
Orbit: 940 x 1009 km, 82.9° (Epoch: 23 November)

Event Time Altitude Azimuth Distance (km) Brightness Sun altitude
Rises 05:29:57 0° 351° (N) 3,642 6.8 -11.0°
Reaches altitude 10° 05:32:28 10° 351° (N) 2,685 6.1 -10.5°
Maximum altitude 05:38:36 85° 264° (W) 953 3.9 -9.4°
Drops below altitude 10° 05:44:38 10° 177° (S) 2,647 6.5 -8.3°
Sets 05:47:06 0° 176° (S) 3,588 7.2 -7.9°
